Location: L�Ave Maria
(50.7161°N, 1.5911°E)
Time: 23:40:15
(UTC+00:00)

SL-16 R/B - Pass Details

Date: 10 July 2020
Orbit: 840 x 850 km, 71.0° (Epoch: 14 August)

Event Time Altitude Azimuth Distance (km) Brightness Sun altitude
Exits shadow 23:30:43 - 230° (SW) 2,700 4.5 -16.9°
Reaches altitude 10° 23:31:22 10° 231° (SW) 2,465 4.3 -17.0°
Maximum altitude 23:36:52 50° 307° (NW) 1,071 3.0 -17.0°
Drops below altitude 10° 23:42:24 10° 23° (NNE) 2,485 5.6 -17.1°
Sets 23:44:57 0° 29° (NNE) 3,425 6.4 -17.1°
